Location: ???? ????
(31.2831°N, 45.5190°E)
Time: 04:28:11
(UTC+00:00)

Cosmos 2360 Rocket - Pass Details

Date: 24 February 2021
Orbit: 832 x 846 km, 71.0° (Epoch: 14 April)

Event Time Altitude Azimuth Distance (km) Brightness Sun altitude
Rises 16:58:30 0° 193° (SSW) 3,365 5.4 -27.7°
Reaches altitude 10° 17:00:55 10° 192° (SSW) 2,436 4.6 -28.2°
Enters shadow 17:03:13 26° 188° (S) 1,596 3.6 -28.7°
